TimeCDT,TemperatureF,Dew PointF,Humidity,Sea Level PressureIn,VisibilityMPH,Wind Direction,Wind SpeedMPH,Gust SpeedMPH,PrecipitationIn,Events,Conditions,WindDirDegrees,DateUTC
12:56 AM,63.0,53.1,70,29.81,-9999.0,SE,6.9,-,N/A,,Unknown,130,2013-10-01 05:56:00
1:56 AM,62.1,53.1,72,29.80,-9999.0,SE,9.2,-,N/A,,Unknown,130,2013-10-01 06:56:00
2:56 AM,60.1,52.0,75,29.79,-9999.0,SE,9.2,-,N/A,,Unknown,130,2013-10-01 07:56:00
3:56 AM,59.0,52.0,78,29.78,-9999.0,ESE,8.1,-,N/A,,Unknown,120,2013-10-01 08:56:00
4:56 AM,57.9,52.0,81,29.80,-9999.0,ESE,8.1,-,N/A,,Unknown,120,2013-10-01 09:56:00
5:56 AM,57.9,52.0,81,29.81,-9999.0,ESE,6.9,-,N/A,,Unknown,120,2013-10-01 10:56:00
6:56 AM,57.0,51.1,81,29.82,-9999.0,ESE,6.9,-,N/A,,Unknown,110,2013-10-01 11:56:00
7:56 AM,57.0,51.1,81,29.85,-9999.0,ESE,5.8,-,N/A,,Unknown,110,2013-10-01 12:56:00
8:56 AM,61.0,52.0,72,29.86,-9999.0,ESE,6.9,-,N/A,,Unknown,120,2013-10-01 13:56:00
9:56 AM,64.0,54.0,70,29.88,-9999.0,SE,9.2,-,N/A,,Unknown,140,2013-10-01 14:56:00
10:56 AM,69.1,55.0,61,29.89,-9999.0,Variable,4.6,-,N/A,,Unknown,0,2013-10-01 15:56:00
11:56 AM,72.0,55.0,55,29.89,-9999.0,SE,4.6,-,N/A,,Unknown,140,2013-10-01 16:56:00
12:56 PM,75.9,57.0,52,29.87,-9999.0,SSE,6.9,-,N/A,,Unknown,160,2013-10-01 17:56:00
1:56 PM,79.0,57.9,48,29.86,-9999.0,SSE,9.2,-,N/A,,Unknown,160,2013-10-01 18:56:00
2:56 PM,82.0,60.1,47,29.84,-9999.0,SE,11.5,18.4,N/A,,Unknown,140,2013-10-01 19:56:00
3:56 PM,84.0,57.9,41,29.82,-9999.0,SSE,12.7,21.9,N/A,,Unknown,150,2013-10-01 20:56:00
4:56 PM,84.9,60.1,43,29.82,-9999.0,South,11.5,19.6,N/A,,Unknown,170,2013-10-01 21:56:00
5:56 PM,84.0,60.1,44,29.83,-9999.0,SE,13.8,20.7,N/A,,Unknown,140,2013-10-01 22:56:00
6:56 PM,82.0,60.1,47,29.83,-9999.0,SE,8.1,-,N/A,,Unknown,140,2013-10-01 23:56:00
7:56 PM,78.1,60.1,54,29.86,-9999.0,SE,8.1,-,N/A,,Unknown,130,2013-10-02 00:56:00
8:56 PM,75.0,61.0,62,29.86,-9999.0,SE,9.2,-,N/A,,Unknown,130,2013-10-02 01:56:00
9:56 PM,73.0,61.0,66,29.87,-9999.0,SE,8.1,-,N/A,,Unknown,130,2013-10-02 02:56:00
10:56 PM,71.1,61.0,70,29.88,-9999.0,SE,6.9,-,N/A,,Unknown,130,2013-10-02 03:56:00
11:56 PM,70.0,61.0,73,29.89,-9999.0,SE,5.8,-,N/A,,Unknown,140,2013-10-02 04:56:00